Location: Arboyeti
(42.1122°N, 44.6017°E)
Time: 04:56:59
(UTC+00:00)

Meteor 1-19 Rocket - Pass Details

Date: 19 April 2021
Orbit: 807 x 928 km, 81.2° (Epoch: 09 May)

Event Time Altitude Azimuth Distance (km) Brightness Sun altitude
Exits shadow 23:10:56 62° 318° (NW) 953 4.4 -28.6°
Drops below altitude 10° 23:15:51 10° 5° (N) 2,449 7.3 -28.0°
Sets 23:18:16 0° 8° (N) 3,373 8.2 -27.8°
